When you browse on this site, cookies collect data to enhance your experience and personalize the content and advertising you see.
Visit our Privacy Policy to learn more. By continuing to use the site, you agree to this use of cookies and data.

Meteo pe oră la Salvador

Astăzi, 26 Septembrie, Sâmbătă

Timp Temperatura Precipitaţii Vânt Presiune Umiditate
00:00 +25°C° 0.2 mm 5 m/s 758 mmHg 88%
01:00 +25°C° 0.2 mm 5 m/s 758 mmHg 88%
02:00 +25°C° 0.2 mm 5 m/s 758 mmHg 87%
03:00 +23°C° 0 mm 5 m/s 757 mmHg 88%
04:00 +23°C° 0.1 mm 5 m/s 757 mmHg 88%
05:00 +25°C° 0.1 mm 4 m/s 758 mmHg 88%
06:00 +25°C° 0.1 mm 4 m/s 758 mmHg 88%
07:00 +25°C° 0.1 mm 4 m/s 758 mmHg 84%
08:00 +26°C° 0.1 mm 4 m/s 758 mmHg 80%
09:00 +27°C° 0.1 mm 4 m/s 759 mmHg 76%
10:00 +27°C° 0 mm 4 m/s 758 mmHg 72%
11:00 +28°C° 0 mm 4 m/s 758 mmHg 67%
12:00 +29°C° 0 mm 4 m/s 757 mmHg 63%
13:00 +28°C° 0 mm 4 m/s 757 mmHg 64%
14:00 +28°C° 0 mm 5 m/s 757 mmHg 66%
15:00 +28°C° 0 mm 5 m/s 756 mmHg 67%
16:00 +27°C° 0 mm 5 m/s 757 mmHg 71%
17:00 +26°C° 0 mm 5 m/s 757 mmHg 74%
18:00 +26°C° 0 mm 5 m/s 757 mmHg 77%
19:00 +25°C° 0 mm 5 m/s 757 mmHg 78%
20:00 +25°C° 0 mm 4 m/s 758 mmHg 79%
21:00 +25°C° 0 mm 4 m/s 758 mmHg 81%
22:00 +25°C° 0 mm 4 m/s 758 mmHg 82%
23:00 +23°C° 0 mm 4 m/s 758 mmHg 83%

Mâine, 27 Septembrie, Duminică

Timp Temperatura Precipitaţii Vânt Presiune Umiditate
00:00 +24°C° 0 mm 3 m/s 757 mmHg 84%
01:00 +24°C° 0 mm 3 m/s 757 mmHg 83%
02:00 +24°C° 0 mm 3 m/s 756 mmHg 83%
03:00 +24°C° 0 mm 3 m/s 756 mmHg 83%
04:00 +24°C° 0 mm 3 m/s 756 mmHg 82%
05:00 +24°C° 0 mm 3 m/s 757 mmHg 81%
06:00 +24°C° 0 mm 2 m/s 757 mmHg 80%
07:00 +25°C° 0 mm 3 m/s 758 mmHg 75%
08:00 +26°C° 0 mm 3 m/s 758 mmHg 69%
09:00 +28°C° 0 mm 3 m/s 758 mmHg 64%
10:00 +28°C° 0 mm 3 m/s 758 mmHg 63%
11:00 +28°C° 0 mm 3 m/s 757 mmHg 61%
12:00 +29°C° 0 mm 4 m/s 757 mmHg 60%
13:00 +28°C° 0 mm 4 m/s 756 mmHg 62%
14:00 +28°C° 0 mm 4 m/s 756 mmHg 64%
15:00 +28°C° 0 mm 4 m/s 755 mmHg 65%
16:00 +27°C° 0 mm 4 m/s 755 mmHg 70%
17:00 +26°C° 0 mm 4 m/s 756 mmHg 74%
18:00 +25°C° 0 mm 4 m/s 756 mmHg 79%
19:00 +25°C° 0 mm 4 m/s 756 mmHg 81%
20:00 +25°C° 0 mm 4 m/s 756 mmHg 82%
21:00 +25°C° 0 mm 4 m/s 757 mmHg 84%
22:00 +25°C° 0 mm 3 m/s 757 mmHg 85%
23:00 +25°C° 0 mm 3 m/s 757 mmHg 86%

Poimâine, 28 Septembrie, Luni

Timp Temperatura Precipitaţii Vânt Presiune Umiditate
00:00 +24°C° 0 mm 3 m/s 757 mmHg 88%
01:00 +24°C° 0 mm 3 m/s 756 mmHg 88%
02:00 +24°C° 0 mm 3 m/s 756 mmHg 89%
03:00 +24°C° 0 mm 3 m/s 755 mmHg 90%
04:00 +24°C° 0.1 mm 2 m/s 756 mmHg 90%
05:00 +24°C° 0.1 mm 2 m/s 756 mmHg 90%
06:00 +24°C° 0.1 mm 2 m/s 756 mmHg 90%
07:00 +25°C° 0.1 mm 2 m/s 757 mmHg 84%
08:00 +26°C° 0.1 mm 2 m/s 757 mmHg 78%
09:00 +28°C° 0.1 mm 1 m/s 757 mmHg 72%
10:00 +28°C° 0.1 mm 2 m/s 757 mmHg 70%
11:00 +29°C° 0.1 mm 3 m/s 757 mmHg 68%
12:00 +29°C° 0.1 mm 4 m/s 756 mmHg 66%
13:00 +29°C° 0 mm 4 m/s 756 mmHg 66%
14:00 +29°C° 0 mm 5 m/s 755 mmHg 66%
15:00 +29°C° 0 mm 5 m/s 755 mmHg 66%
16:00 +28°C° 0 mm 5 m/s 755 mmHg 70%
17:00 +27°C° 0 mm 5 m/s 755 mmHg 74%
18:00 +26°C° 0 mm 5 m/s 755 mmHg 78%
19:00 +26°C° 0 mm 5 m/s 756 mmHg 80%
20:00 +26°C° 0 mm 5 m/s 756 mmHg 83%
21:00 +26°C° 0 mm 5 m/s 757 mmHg 85%
22:00 +25°C° 0 mm 4 m/s 757 mmHg 86%
23:00 +25°C° 0 mm 4 m/s 757 mmHg 86%

29 Septembrie, Marţi

Timp Temperatura Precipitaţii Vânt Presiune Umiditate
00:00 +25°C° 0 mm 4 m/s 757 mmHg 87%
01:00 +25°C° 0 mm 4 m/s 756 mmHg 87%
02:00 +25°C° 0 mm 4 m/s 756 mmHg 88%
03:00 +23°C° 0 mm 4 m/s 755 mmHg 89%
04:00 +23°C° 0 mm 4 m/s 756 mmHg 88%
05:00 +23°C° 0 mm 4 m/s 756 mmHg 88%
06:00 +23°C° 0 mm 4 m/s 756 mmHg 88%
07:00 +26°C° 0.1 mm 4 m/s 757 mmHg 82%
08:00 +27°C° 0.1 mm 4 m/s 757 mmHg 77%
09:00 +28°C° 0.1 mm 4 m/s 758 mmHg 71%
10:00 +28°C° 0.1 mm 4 m/s 757 mmHg 69%
11:00 +29°C° 0.1 mm 5 m/s 757 mmHg 66%
12:00 +30°C° 0.1 mm 6 m/s 757 mmHg 64%
13:00 +29°C° 0 mm 6 m/s 756 mmHg 65%
14:00 +29°C° 0 mm 6 m/s 756 mmHg 65%
15:00 +29°C° 0 mm 7 m/s 756 mmHg 66%
16:00 +28°C° 0 mm 6 m/s 756 mmHg 70%
17:00 +28°C° 0 mm 6 m/s 756 mmHg 74%
18:00 +27°C° 0 mm 6 m/s 756 mmHg 78%
19:00 +26°C° 0 mm 6 m/s 757 mmHg 80%
20:00 +26°C° 0 mm 6 m/s 757 mmHg 81%
21:00 +26°C° 0 mm 6 m/s 758 mmHg 83%
22:00 +26°C° 0 mm 6 m/s 758 mmHg 83%
23:00 +25°C° 0 mm 5 m/s 758 mmHg 83%

30 Septembrie, Miercuri

Timp Temperatura Precipitaţii Vânt Presiune Umiditate
00:00 +25°C° 0 mm 5 m/s 758 mmHg 84%
01:00 +25°C° 0 mm 5 m/s 757 mmHg 84%
02:00 +25°C° 0 mm 5 m/s 757 mmHg 84%
03:00 +25°C° 0 mm 5 m/s 757 mmHg 84%
04:00 +25°C° 0 mm 5 m/s 757 mmHg 83%
05:00 +25°C° 0 mm 4 m/s 758 mmHg 82%
06:00 +25°C° 0 mm 4 m/s 758 mmHg 81%
07:00 +26°C° 0.3 mm 5 m/s 758 mmHg 79%
08:00 +27°C° 0.3 mm 5 m/s 759 mmHg 78%
09:00 +28°C° 0.3 mm 6 m/s 759 mmHg 76%
10:00 +28°C° 0 mm 6 m/s 759 mmHg 71%
11:00 +29°C° 0 mm 5 m/s 758 mmHg 66%
12:00 +30°C° 0 mm 5 m/s 758 mmHg 61%
13:00 +29°C° 0 mm 5 m/s 757 mmHg 63%
14:00 +29°C° 0 mm 5 m/s 757 mmHg 66%
15:00 +29°C° 0 mm 5 m/s 756 mmHg 68%
16:00 +28°C° 0.1 mm 5 m/s 757 mmHg 72%
17:00 +27°C° 0.1 mm 5 m/s 757 mmHg 77%
18:00 +26°C° 0.1 mm 5 m/s 757 mmHg 81%
19:00 +26°C° 0 mm 5 m/s 757 mmHg 82%
20:00 +26°C° 0 mm 5 m/s 758 mmHg 82%
21:00 +25°C° 0 mm 5 m/s 758 mmHg 83%
22:00 +25°C° 0 mm 5 m/s 758 mmHg 83%
23:00 +25°C° 0 mm 5 m/s 758 mmHg 83%

1 Octombrie, Joi

Timp Temperatura Precipitaţii Vânt Presiune Umiditate
00:00 +25°C° 0 mm 5 m/s 758 mmHg 83%
01:00 +25°C° 0 mm 5 m/s 758 mmHg 84%
02:00 +25°C° 0 mm 4 m/s 757 mmHg 84%
03:00 +25°C° 0 mm 4 m/s 757 mmHg 85%
04:00 +25°C° 0.1 mm 4 m/s 757 mmHg 84%
05:00 +25°C° 0.1 mm 5 m/s 758 mmHg 84%
06:00 +25°C° 0.1 mm 5 m/s 758 mmHg 84%
07:00 +26°C° 0 mm 5 m/s 758 mmHg 77%
08:00 +27°C° 0 mm 4 m/s 759 mmHg 71%
09:00 +28°C° 0 mm 4 m/s 759 mmHg 64%
10:00 +29°C° 0 mm 4 m/s 759 mmHg 63%
11:00 +29°C° 0 mm 5 m/s 758 mmHg 63%
12:00 +29°C° 0 mm 5 m/s 758 mmHg 63%
13:00 +29°C° 0 mm 5 m/s 757 mmHg 64%
14:00 +29°C° 0 mm 5 m/s 756 mmHg 64%
15:00 +28°C° 0 mm 5 m/s 756 mmHg 65%
16:00 +28°C° 0 mm 5 m/s 756 mmHg 69%
17:00 +27°C° 0 mm 4 m/s 756 mmHg 73%
18:00 +26°C° 0 mm 4 m/s 757 mmHg 77%
19:00 +26°C° 0 mm 4 m/s 757 mmHg 78%
20:00 +25°C° 0 mm 4 m/s 758 mmHg 80%
21:00 +25°C° 0 mm 4 m/s 758 mmHg 81%
22:00 +25°C° 0 mm 4 m/s 758 mmHg 83%
23:00 +25°C° 0 mm 3 m/s 758 mmHg 84%
Arată mai mult